Location: Unspecified
(48.2082°N, 0.0000°E)
Time: 18:09:00
(UTC+00:00)

Vanguard 1 - Pass Details

Date: 27 June 2019
Orbit: 653 x 3830 km, 34.3° (Epoch: 15 July)

Event Time Altitude Azimuth Distance (km) Brightness Sun altitude
Rises 22:20:05 0° 193° (SSW) 7,844 14.2 -14.8°
Enters shadow 22:23:55 - 187° (S) 7,369 14.0 -15.1°
Reaches altitude 10° 22:27:39 10° 180° (S) 6,926 - -15.4°
Exits shadow 22:35:01 18° 163° (SSE) 6,167 13.4 -15.8°
Maximum altitude 22:42:17 21° 141° (SE) 5,678 13.3 -16.2°
Drops below altitude 10° 22:54:38 10° 101° (E) 5,855 13.7 -16.9°
Sets 23:00:01 0° 87° (E) 6,392 14.1 -17.1°
